Location: Newark
(47.5000°N, 4.6167°E)
Time: 17:43:46
(UTC+00:00)

Envisat - Visible Passes

Search period start: 29 November 2021 00:00
Search period end: 09 December 2021 00:00
Orbit: 764 x 766 km, 98.2° (Epoch: 29 November)

Date Brightness Start Highest point End Pass type
(mag) Time Alt. Az. Time Alt. Az. Time Alt. Az.
29 Nov 5.4 03:40:49 10° NE 03:44:38 21° E 03:48:24 10° SE visible
29 Nov 3.0 05:19:01 10° N 05:24:00 57° WNW 05:28:58 10° SSW visible
29 Nov 5.1 16:37:25 10° SSW 16:41:55 31° W 16:46:26 10° NNW visible
30 Nov 3.2 04:42:05 10° NNE 04:47:11 71° ESE 04:52:15 10° S visible
30 Nov 4.3 06:22:11 10° NNW 06:25:40 19° WNW 06:29:08 10° WSW visible
01 Dec 4.6 04:05:32 10° NNE 04:10:10 34° E 04:14:45 10° SSE visible
01 Dec 3.5 05:44:35 10° N 05:49:10 35° WNW 05:53:45 10° SW visible
01 Dec 5.8 17:03:53 10° SW 17:07:28 19° W 17:11:05 10° NW visible
02 Dec 5.7 03:29:42 10° NE 03:32:56 17° E 03:36:09 10° SE visible
02 Dec 2.9 05:07:24 10° N 05:12:29 71° WNW 05:17:32 10° SSW visible
02 Dec 4.6 16:25:33 10° SSW 16:30:17 39° W 16:35:03 10° NNW visible
03 Dec 3.6 04:30:35 10° NNE 04:35:36 57° E 04:40:36 10° S visible
03 Dec 4.1 06:10:21 10° N 06:14:15 23° WNW 06:18:08 10° WSW visible
03 Dec 6.3 17:31:37 10° WSW 17:33:08 11° W 17:34:38 10° WNW visible
04 Dec 4.9 03:54:11 10° NE 03:58:31 27° E 04:02:50 10° SSE visible
04 Dec 3.3 05:32:53 10° N 05:37:42 43° WNW 05:42:28 10° SW visible
04 Dec 5.6 16:51:44 10° SW 16:55:48 24° W 16:59:53 10° NW visible
05 Dec 5.9 03:18:50 10° ENE 03:21:13 13° E 03:23:38 10° ESE visible
05 Dec 2.9 04:55:50 10° NNE 05:00:57 87° WNW 05:06:01 10° SSW visible
05 Dec 4.5 06:36:29 10° NNW 06:39:13 15° NW 06:41:57 10° W visible
06 Dec 4.0 04:19:07 10° NNE 04:24:00 45° E 04:28:51 10° S visible
06 Dec 3.8 05:58:34 10° N 06:02:48 27° WNW 06:07:02 10° WSW visible
06 Dec 6.0 17:18:42 10° WSW 17:21:24 14° W 17:24:07 10° NW visible
07 Dec 5.3 03:42:55 10° NE 03:46:51 22° E 03:50:47 10° SE visible
07 Dec 3.0 05:21:14 10° N 05:26:11 53° WNW 05:31:07 10° SW visible
07 Dec 5.2 16:39:44 10° SSW 16:44:08 29° W 16:48:34 10° NNW visible
08 Dec 6.1 03:08:50 10° ENE 03:09:29 10° E 03:10:10 10° E visible
08 Dec 3.1 04:44:16 10° NNE 04:49:23 76° ESE 04:54:27 10° S visible
08 Dec 4.3 06:24:29 10° NNW 06:27:49 18° WNW 06:31:08 10° W visible
